Radiation Dose at Monitoring Post of Fukushima Daini Nuclear Power Station
Date,Time,MP-1(microSv/h),MP-2(microSv/h),MP-3(microSv/h),MP-4(microSv/h),MP-5(microSv/h),MP-6(microSv/h),MP-7(microSv/h),Wind Direction,Wind Velocity(m/s),Rain
2018/10/10,00:00,0.307,0.192,0.311,0.301,0.286,0.155,0.096,west-southwest,1.2,No
2018/10/10,00:10,0.311,0.194,0.314,0.303,0.283,0.157,0.096,southwest,1.3,No
2018/10/10,00:20,0.308,0.193,0.312,0.301,0.284,0.156,0.096,southwest,0.8,No
2018/10/10,00:30,0.310,0.193,0.315,0.301,0.284,0.157,0.097,southwest,0.8,No
2018/10/10,00:40,0.307,0.193,0.313,0.300,0.283,0.157,0.095,west-southwest,0.7,No
2018/10/10,00:50,0.310,0.194,0.315,0.303,0.285,0.157,0.097,-,CALM,No
2018/10/10,01:00,0.308,0.192,0.312,0.301,0.284,0.156,0.095,-,CALM,No
2018/10/10,01:10,0.309,0.194,0.313,0.305,0.284,0.156,0.096,north,0.6,No
2018/10/10,01:20,0.307,0.193,0.313,0.301,0.284,0.157,0.096,-,CALM,No
2018/10/10,01:30,0.308,0.194,0.312,0.302,0.284,0.157,0.096,-,CALM,No
2018/10/10,01:40,0.308,0.193,0.313,0.301,0.282,0.156,0.095,north-northeast,0.7,No
2018/10/10,01:50,0.308,0.194,0.312,0.301,0.286,0.156,0.095,north,0.8,No
2018/10/10,02:00,0.309,0.193,0.313,0.302,0.282,0.156,0.095,north-northeast,0.9,No
2018/10/10,02:10,0.307,0.193,0.312,0.302,0.285,0.157,0.096,-,CALM,No
2018/10/10,02:20,0.310,0.193,0.315,0.302,0.283,0.157,0.095,north-northeast,0.8,No
2018/10/10,02:30,0.307,0.194,0.310,0.298,0.285,0.156,0.095,northeast,1.1,No
2018/10/10,02:40,0.308,0.192,0.313,0.304,0.284,0.157,0.095,north-northeast,1.4,No
2018/10/10,02:50,0.308,0.194,0.311,0.300,0.285,0.156,0.095,north-northeast,1.3,No
2018/10/10,03:00,0.308,0.194,0.314,0.302,0.284,0.157,0.096,north,0.8,No
2018/10/10,03:10,0.309,0.194,0.312,0.301,0.282,0.157,0.096,north-northeast,0.7,No
2018/10/10,03:20,0.309,0.192,0.314,0.302,0.283,0.156,0.096,north,1.1,No
2018/10/10,03:30,0.307,0.194,0.311,0.299,0.282,0.155,0.096,north-northeast,1.2,No
2018/10/10,03:40,0.310,0.194,0.314,0.303,0.284,0.156,0.096,north-northeast,1.7,No
2018/10/10,03:50,0.308,0.193,0.312,0.299,0.283,0.155,0.096,north-northeast,1.7,No
2018/10/10,04:00,0.309,0.193,0.314,0.302,0.285,0.157,0.095,north-northeast,1.7,No
2018/10/10,04:10,0.309,0.193,0.314,0.300,0.282,0.155,0.095,north-northeast,1.6,No
2018/10/10,04:20,0.309,0.193,0.312,0.303,0.285,0.156,0.096,north-northeast,2.0,No
2018/10/10,04:30,0.308,0.193,0.315,0.300,0.282,0.155,0.096,north,2.0,No
2018/10/10,04:40,0.308,0.193,0.312,0.302,0.283,0.157,0.095,north,2.2,No
2018/10/10,04:50,0.309,0.193,0.313,0.299,0.282,0.156,0.095,north,2.4,No
2018/10/10,05:00,0.308,0.193,0.312,0.303,0.285,0.157,0.096,north,2.4,No
2018/10/10,05:10,0.309,0.193,0.313,0.300,0.283,0.157,0.096,northeast,1.0,No
2018/10/10,05:20,0.308,0.194,0.313,0.303,0.284,0.156,0.096,north-northeast,2.0,No
2018/10/10,05:30,0.309,0.192,0.315,0.299,0.282,0.156,0.095,north-northeast,2.1,No
2018/10/10,05:40,0.308,0.193,0.312,0.302,0.284,0.156,0.095,north-northeast,1.6,No
2018/10/10,05:50,0.308,0.194,0.313,0.300,0.281,0.156,0.095,north-northeast,1.3,No
2018/10/10,06:00,0.310,0.194,0.311,0.303,0.285,0.156,0.096,northeast,1.4,No
2018/10/10,06:10,0.308,0.192,0.314,0.299,0.282,0.155,0.095,north-northeast,1.5,No
2018/10/10,06:20,0.309,0.194,0.312,0.303,0.282,0.157,0.095,north,1.5,No
2018/10/10,06:30,0.308,0.192,0.313,0.300,0.281,0.156,0.096,north,1.7,No
2018/10/10,06:40,0.307,0.193,0.313,0.301,0.282,0.156,0.096,north-northeast,1.3,No
2018/10/10,06:50,0.308,0.192,0.312,0.301,0.281,0.155,0.096,northeast,1.2,No
2018/10/10,07:00,0.310,0.193,0.312,0.301,0.282,0.157,0.096,north-northeast,1.2,No
2018/10/10,07:10,0.307,0.192,0.313,0.300,0.283,0.156,0.094,northeast,1.4,No
2018/10/10,07:20,0.308,0.193,0.312,0.299,0.281,0.156,0.096,north-northeast,0.8,No
2018/10/10,07:30,0.306,0.193,0.311,0.302,0.284,0.156,0.095,north,1.5,No
2018/10/10,07:40,0.311,0.194,0.314,0.299,0.280,0.156,0.096,east-northeast,1.3,No
2018/10/10,07:50,0.306,0.192,0.310,0.297,0.283,0.157,0.094,north-northeast,2.0,No
2018/10/10,08:00,0.308,0.193,0.314,0.301,0.283,0.155,0.094,east-northeast,1.7,No
2018/10/10,08:10,0.308,0.192,0.311,0.301,0.282,0.157,0.095,northeast,1.9,No
2018/10/10,08:20,0.306,0.191,0.310,0.298,0.285,0.155,0.097,north-northeast,1.7,No
2018/10/10,08:30,0.308,0.191,0.312,0.302,0.282,0.156,0.096,northeast,1.9,No
2018/10/10,08:40,0.305,0.193,0.309,0.301,0.281,0.156,0.095,northeast,2.2,No
2018/10/10,08:50,0.308,0.191,0.315,0.299,0.285,0.155,0.095,east-northeast,1.4,No
2018/10/10,09:00,0.308,0.191,0.311,0.299,0.282,0.156,0.095,northeast,2.0,No
2018/10/10,09:10,0.307,0.191,0.314,0.303,0.279,0.156,0.095,northeast,2.1,No
2018/10/10,09:20,0.309,0.191,0.314,0.302,0.283,0.155,0.094,east-northeast,2.4,No
2018/10/10,09:30,0.307,0.192,0.310,0.299,0.284,0.155,0.094,east-northeast,2.3,No
2018/10/10,09:40,0.305,0.193,0.313,0.298,0.281,0.155,0.094,east-northeast,1.9,No
2018/10/10,09:50,0.304,0.191,0.311,0.298,0.281,0.155,0.094,east-northeast,1.7,No
2018/10/10,10:00,0.304,0.191,0.311,0.298,0.279,0.156,0.096,east-northeast,2.3,No
2018/10/10,10:10,0.303,0.191,0.315,0.297,0.280,0.157,0.095,east-northeast,2.1,No
2018/10/10,10:20,0.302,0.192,0.310,0.299,0.279,0.156,0.095,east-northeast,1.8,No
2018/10/10,10:30,0.304,0.191,0.311,0.299,0.280,0.155,0.095,east-northeast,1.7,No
2018/10/10,10:40,0.303,0.190,0.314,0.298,0.280,0.156,0.095,east-northeast,1.9,No
2018/10/10,10:50,0.304,0.190,0.311,0.299,0.281,0.155,0.094,east-northeast,2.4,No
2018/10/10,11:00,0.304,0.190,0.311,0.298,0.285,0.155,0.094,east,2.5,No
2018/10/10,11:10,0.304,0.191,0.312,0.299,0.284,0.156,0.094,east,1.8,No
2018/10/10,11:20,0.305,0.193,0.311,0.298,0.283,0.155,0.095,east-northeast,1.6,No
2018/10/10,11:30,0.305,0.193,0.309,0.298,0.283,0.155,0.095,east,1.7,No
2018/10/10,11:40,0.305,0.193,0.308,0.300,0.283,0.157,0.095,east,2.1,No
2018/10/10,11:50,0.307,0.192,0.308,0.299,0.282,0.156,0.096,southeast,1.9,No
2018/10/10,12:00,0.311,0.192,0.309,0.299,0.281,0.157,0.094,east-southeast,2.1,No
2018/10/10,12:10,0.309,0.191,0.313,0.298,0.281,0.156,0.094,east-southeast,2.1,No
2018/10/10,12:20,0.307,0.191,0.314,0.299,0.281,0.155,0.095,east,2.1,No
2018/10/10,12:30,0.307,0.191,0.312,0.299,0.281,0.155,0.095,east-southeast,1.7,No
2018/10/10,12:40,0.306,0.191,0.312,0.300,0.282,0.155,0.095,east-southeast,2.0,No
2018/10/10,12:50,0.305,0.192,0.310,0.300,0.281,0.156,0.094,south-southeast,1.5,No
2018/10/10,13:00,0.306,0.191,0.311,0.299,0.281,0.155,0.095,southeast,1.3,No
2018/10/10,13:10,0.310,0.191,0.309,0.300,0.280,0.155,0.095,east-southeast,2.0,No
2018/10/10,13:20,0.309,0.191,0.309,0.301,0.283,0.156,0.094,east-southeast,2.0,No
2018/10/10,13:30,0.307,0.192,0.310,0.299,0.283,0.158,0.094,southeast,1.9,No
2018/10/10,13:40,0.306,0.193,0.309,0.299,0.282,0.157,0.095,southeast,2.0,No
2018/10/10,13:50,0.306,0.195,0.307,0.302,0.281,0.157,0.095,east-southeast,1.7,No
2018/10/10,14:00,0.306,0.193,0.308,0.306,0.283,0.157,0.095,east-southeast,2.2,No
2018/10/10,14:10,0.310,0.193,0.311,0.302,0.280,0.156,0.095,southeast,1.4,No
2018/10/10,14:20,0.310,0.192,-,0.301,0.281,0.156,0.095,south-southeast,1.8,No
2018/10/10,14:30,0.307,0.192,0.311,0.303,0.283,0.156,0.096,-,CALM,No
2018/10/10,14:40,0.307,0.194,0.311,0.303,0.287,0.157,0.095,south-southeast,1.4,No
2018/10/10,14:50,0.310,0.195,0.314,0.301,0.286,0.157,0.095,southeast,0.8,No
2018/10/10,15:00,0.310,0.192,0.315,0.302,0.284,0.156,0.096,south-southeast,0.8,No
2018/10/10,15:10,0.305,0.193,0.311,0.304,0.285,0.155,0.094,south-southeast,0.6,No
2018/10/10,15:20,0.310,0.192,0.314,0.300,0.286,0.157,0.094,south-southeast,1.3,No
2018/10/10,15:30,0.307,0.192,0.314,0.302,0.283,0.156,0.096,south,2.2,No
2018/10/10,15:40,0.306,0.194,0.311,0.304,0.284,0.155,0.095,south-southeast,1.1,No
2018/10/10,15:50,0.310,0.193,0.316,0.301,0.287,0.155,0.095,-,CALM,No
2018/10/10,16:00,0.307,0.193,0.313,0.303,0.282,0.157,0.096,south-southeast,1.6,No
2018/10/10,16:10,0.308,0.194,0.312,0.302,0.285,0.155,0.095,-,CALM,No
2018/10/10,16:20,0.310,0.193,0.315,0.300,0.286,0.155,0.096,south-southeast,0.8,No
2018/10/10,16:30,0.309,0.194,0.311,0.303,0.282,0.157,0.095,-,CALM,No
2018/10/10,16:40,0.311,0.194,0.314,0.301,0.285,0.155,0.094,-,CALM,No
2018/10/10,16:50,0.309,0.194,0.312,0.301,0.285,0.156,0.096,-,CALM,No
2018/10/10,17:00,0.307,0.194,0.314,0.300,0.284,0.156,0.096,south-southeast,0.8,No
2018/10/10,17:10,0.312,0.193,0.313,0.300,0.285,0.156,0.096,east-northeast,0.9,No
2018/10/10,17:20,0.307,0.195,0.313,0.304,0.283,0.155,0.095,south-southeast,1.1,No
2018/10/10,17:30,0.309,0.194,0.314,0.300,0.285,0.155,0.095,south,1.7,No
2018/10/10,17:40,0.310,0.194,0.313,0.301,0.285,0.155,0.095,south,1.5,No
2018/10/10,17:50,0.309,0.194,0.314,0.301,0.283,0.154,0.095,south,1.6,No
2018/10/10,18:00,0.309,0.194,0.311,0.300,0.285,0.157,0.096,south,1.1,No
2018/10/10,18:10,0.307,0.194,0.314,0.302,0.282,0.156,0.095,south,1.0,No
2018/10/10,18:20,0.309,0.195,0.314,0.302,0.286,0.156,0.096,south,1.7,No
2018/10/10,18:30,0.308,0.192,0.315,0.303,0.284,0.157,0.095,south-southeast,1.5,No
2018/10/10,18:40,0.309,0.194,0.313,0.301,0.285,0.156,0.096,south-southeast,0.9,No
2018/10/10,18:50,0.308,0.193,0.313,0.304,0.284,0.156,0.096,south,0.9,No
2018/10/10,19:00,0.308,0.194,0.315,0.301,0.283,0.157,0.095,southeast,0.8,No
2018/10/10,19:10,0.308,0.194,0.312,0.303,0.286,0.157,0.096,-,CALM,No
2018/10/10,19:20,0.309,0.194,0.314,0.301,0.282,0.155,0.096,-,CALM,No
2018/10/10,19:30,0.309,0.193,0.314,0.304,0.285,0.155,0.096,-,CALM,No
2018/10/10,19:40,0.308,0.194,0.315,0.301,0.284,0.157,0.095,-,CALM,No
2018/10/10,19:50,0.309,0.194,0.312,0.302,0.285,0.157,0.096,-,CALM,No
2018/10/10,20:00,0.307,0.194,0.315,0.302,0.284,0.156,0.096,south,1.0,No
2018/10/10,20:10,0.310,0.193,0.312,0.302,0.285,0.156,0.096,-,CALM,No
2018/10/10,20:20,0.307,0.195,0.316,0.304,0.283,0.156,0.095,-,CALM,No
2018/10/10,20:30,0.310,0.193,0.312,0.301,0.284,0.156,0.096,north-northeast,0.7,No
2018/10/10,20:40,0.310,0.194,0.315,0.303,0.286,0.157,0.096,-,CALM,No
2018/10/10,20:50,0.310,0.192,0.314,0.302,0.282,0.156,0.096,-,CALM,No
2018/10/10,21:00,0.309,0.195,0.315,0.305,0.286,0.158,0.095,south,0.7,No
2018/10/10,21:10,0.309,0.193,0.316,0.301,0.283,0.156,0.097,south-southeast,1.2,No
2018/10/10,21:20,0.311,0.193,0.314,0.305,0.286,0.157,0.096,south,1.6,No
2018/10/10,21:30,0.308,0.193,0.315,0.302,0.283,0.156,0.095,south,1.3,No
2018/10/10,21:40,0.310,0.194,0.313,0.305,0.285,0.158,0.096,south,0.6,No
2018/10/10,21:50,0.308,0.193,0.314,0.302,0.283,0.156,0.096,-,CALM,No
2018/10/10,22:00,0.311,0.195,0.313,0.303,0.286,0.157,0.097,-,CALM,No
2018/10/10,22:10,0.308,0.194,0.315,0.300,0.284,0.156,0.096,-,CALM,No
2018/10/10,22:20,0.311,0.194,0.315,0.302,0.284,0.157,0.095,south-southwest,2.0,No
2018/10/10,22:30,0.308,0.194,0.314,0.302,0.284,0.157,0.095,southwest,0.8,No
2018/10/10,22:40,0.311,0.193,0.312,0.302,0.282,0.156,0.096,-,CALM,No
2018/10/10,22:50,0.307,0.193,0.315,0.303,0.284,0.157,0.096,-,CALM,No
2018/10/10,23:00,0.309,0.193,0.312,0.302,0.282,0.157,0.095,north,0.6,No
2018/10/10,23:10,0.308,0.193,0.314,0.303,0.283,0.156,0.097,-,CALM,No
2018/10/10,23:20,0.309,0.193,0.312,0.300,0.284,0.156,0.097,-,CALM,No
2018/10/10,23:30,0.309,0.193,0.314,0.304,0.284,0.157,0.095,southwest,1.0,No
2018/10/10,23:40,0.308,0.195,0.311,0.302,0.285,0.155,0.096,-,CALM,No
2018/10/10,23:50,0.310,0.194,0.314,0.304,0.283,0.157,0.096,-,CALM,No
